Year,Month,Day,Hour,Minute,Value (Times are PST for temperature in C)
2017,05,06,00,00,8.10
2017,05,06,00,01,8.10
2017,05,06,00,02,8.20
2017,05,06,00,03,8.20
2017,05,06,00,04,8.20
2017,05,06,00,05,8.20
2017,05,06,00,06,8.20
2017,05,06,00,07,8.20
2017,05,06,00,08,8.20
2017,05,06,00,09,8.20
2017,05,06,00,10,8.20
2017,05,06,00,11,8.20
2017,05,06,00,12,8.20
2017,05,06,00,13,8.20
2017,05,06,00,14,8.10
2017,05,06,00,15,8.10
2017,05,06,00,16,8.10
2017,05,06,00,17,8.10
2017,05,06,00,18,8.10
2017,05,06,00,19,8.10
2017,05,06,00,20,8.00
2017,05,06,00,21,8.00
2017,05,06,00,22,7.90
2017,05,06,00,23,7.90
2017,05,06,00,24,7.90
2017,05,06,00,25,7.90
2017,05,06,00,26,7.80
2017,05,06,00,27,7.80
2017,05,06,00,28,7.80
2017,05,06,00,29,7.70
2017,05,06,00,30,7.70
2017,05,06,00,31,7.70
2017,05,06,00,32,7.70
2017,05,06,00,33,7.70
2017,05,06,00,34,7.70
2017,05,06,00,35,7.60
2017,05,06,00,36,7.60
2017,05,06,00,37,7.60
2017,05,06,00,38,7.50
2017,05,06,00,39,7.50
2017,05,06,00,40,7.40
2017,05,06,00,41,7.40
2017,05,06,00,42,7.40
2017,05,06,00,43,7.40
2017,05,06,00,44,7.40
2017,05,06,00,45,7.40
2017,05,06,00,46,7.30
2017,05,06,00,47,7.30
2017,05,06,00,48,7.30
2017,05,06,00,49,7.30
2017,05,06,00,50,7.30
2017,05,06,00,51,7.30
2017,05,06,00,52,7.30
2017,05,06,00,53,7.30
2017,05,06,00,54,7.30
2017,05,06,00,55,7.30
2017,05,06,00,56,7.20
2017,05,06,00,57,7.20
2017,05,06,00,58,7.20
2017,05,06,00,59,7.20
2017,05,06,01,00,7.20
2017,05,06,01,01,7.10
2017,05,06,01,02,7.10
2017,05,06,01,03,7.00
2017,05,06,01,04,6.90
2017,05,06,01,05,6.90
2017,05,06,01,06,6.90
2017,05,06,01,07,6.90
2017,05,06,01,08,6.90
2017,05,06,01,09,6.90
2017,05,06,01,10,6.90
2017,05,06,01,11,6.90
2017,05,06,01,12,6.90
2017,05,06,01,13,6.90
2017,05,06,01,14,6.90
2017,05,06,01,15,6.90
2017,05,06,01,16,6.80
2017,05,06,01,17,6.80
2017,05,06,01,18,6.80
2017,05,06,01,19,6.80
2017,05,06,01,20,6.80
2017,05,06,01,21,6.70
2017,05,06,01,22,6.70
2017,05,06,01,23,6.70
2017,05,06,01,24,6.70
2017,05,06,01,25,6.60
2017,05,06,01,26,6.60
2017,05,06,01,27,6.60
2017,05,06,01,28,6.60
2017,05,06,01,29,6.60
2017,05,06,01,30,6.50
2017,05,06,01,31,6.50
2017,05,06,01,32,6.50
2017,05,06,01,33,6.40
2017,05,06,01,34,6.40
2017,05,06,01,35,6.40
2017,05,06,01,36,6.40
2017,05,06,01,37,6.40
2017,05,06,01,38,6.40
2017,05,06,01,39,6.40
2017,05,06,01,40,6.30
2017,05,06,01,41,6.30
2017,05,06,01,42,6.30
2017,05,06,01,43,6.30
2017,05,06,01,44,6.30
2017,05,06,01,45,6.20
2017,05,06,01,46,6.20
2017,05,06,01,47,6.20
2017,05,06,01,48,6.10
2017,05,06,01,49,6.10
2017,05,06,01,50,6.00
2017,05,06,01,51,6.00
2017,05,06,01,52,6.00
2017,05,06,01,53,5.90
2017,05,06,01,54,5.90
2017,05,06,01,55,5.90
2017,05,06,01,56,5.80
2017,05,06,01,57,5.80
2017,05,06,01,58,5.80
2017,05,06,01,59,5.80
2017,05,06,02,00,5.80
2017,05,06,02,01,5.80
2017,05,06,02,02,5.70
2017,05,06,02,03,5.70
2017,05,06,02,04,5.70
2017,05,06,02,05,5.70
2017,05,06,02,06,5.70
2017,05,06,02,07,5.70
2017,05,06,02,08,5.70
2017,05,06,02,09,5.70
2017,05,06,02,10,5.60
2017,05,06,02,11,5.60
2017,05,06,02,12,5.60
2017,05,06,02,13,5.60
2017,05,06,02,14,5.60
2017,05,06,02,15,5.50
2017,05,06,02,16,5.50
2017,05,06,02,17,5.50
2017,05,06,02,18,5.50
2017,05,06,02,19,5.50
2017,05,06,02,20,5.50
2017,05,06,02,21,5.40
2017,05,06,02,22,5.40
2017,05,06,02,23,5.40
2017,05,06,02,24,5.40
2017,05,06,02,25,5.40
2017,05,06,02,26,5.40
2017,05,06,02,27,5.40
2017,05,06,02,28,5.30
2017,05,06,02,29,5.30
2017,05,06,02,30,5.30
2017,05,06,02,31,5.30
2017,05,06,02,32,5.20
2017,05,06,02,33,5.20
2017,05,06,02,34,5.20
2017,05,06,02,35,5.20
2017,05,06,02,36,5.20
2017,05,06,02,37,5.20
2017,05,06,02,38,5.20
2017,05,06,02,39,5.20
2017,05,06,02,40,5.20
2017,05,06,02,41,5.10
2017,05,06,02,42,5.10
2017,05,06,02,43,5.10
2017,05,06,02,44,5.10
2017,05,06,02,45,5.10
2017,05,06,02,46,5.10
2017,05,06,02,47,5.10
2017,05,06,02,48,5.00
2017,05,06,02,49,5.00
2017,05,06,02,50,5.00
2017,05,06,02,51,5.00
2017,05,06,02,52,4.90
2017,05,06,02,53,4.90
2017,05,06,02,54,4.90
2017,05,06,02,55,4.90
2017,05,06,02,56,4.90
2017,05,06,02,57,4.80
2017,05,06,02,58,4.80
2017,05,06,02,59,4.80
2017,05,06,03,00,4.80
2017,05,06,03,01,4.80
2017,05,06,03,02,4.80
2017,05,06,03,03,4.80
2017,05,06,03,04,4.80
2017,05,06,03,05,4.80
2017,05,06,03,06,4.80
2017,05,06,03,07,4.70
2017,05,06,03,08,4.70
2017,05,06,03,09,4.70
2017,05,06,03,10,4.70
2017,05,06,03,11,4.70
2017,05,06,03,12,4.60
2017,05,06,03,13,4.60
2017,05,06,03,14,4.60
2017,05,06,03,15,4.60
2017,05,06,03,16,4.60
2017,05,06,03,17,4.60
2017,05,06,03,18,4.60
2017,05,06,03,19,4.60
2017,05,06,03,20,4.60
2017,05,06,03,21,4.60
2017,05,06,03,22,4.60
2017,05,06,03,23,4.50
2017,05,06,03,24,4.50
2017,05,06,03,25,4.50
2017,05,06,03,26,4.50
2017,05,06,03,27,4.50
2017,05,06,03,28,4.50
2017,05,06,03,29,4.50
2017,05,06,03,30,4.50
2017,05,06,03,31,4.50
2017,05,06,03,32,4.50
2017,05,06,03,33,4.50
2017,05,06,03,34,4.50
2017,05,06,03,35,4.40
2017,05,06,03,36,4.40
2017,05,06,03,37,4.40
2017,05,06,03,38,4.40
2017,05,06,03,39,4.40
2017,05,06,03,40,4.40
2017,05,06,03,41,4.40
2017,05,06,03,42,4.30
2017,05,06,03,43,4.30
2017,05,06,03,44,4.30
2017,05,06,03,45,4.30
2017,05,06,03,46,4.30
2017,05,06,03,47,4.30
2017,05,06,03,48,4.30
2017,05,06,03,49,4.20
2017,05,06,03,50,4.20
2017,05,06,03,51,4.20
2017,05,06,03,52,4.20
2017,05,06,03,53,4.20
2017,05,06,03,54,4.20
2017,05,06,03,55,4.20
2017,05,06,03,56,4.10
2017,05,06,03,57,4.10
2017,05,06,03,58,4.10
2017,05,06,03,59,4.10
2017,05,06,04,00,4.10
2017,05,06,04,01,4.10
2017,05,06,04,02,4.10
2017,05,06,04,03,4.10
2017,05,06,04,04,4.10
2017,05,06,04,05,4.10
2017,05,06,04,06,4.10
2017,05,06,04,07,4.10
2017,05,06,04,08,4.10
2017,05,06,04,09,4.10
2017,05,06,04,10,4.10
2017,05,06,04,11,4.10
2017,05,06,04,12,4.10
2017,05,06,04,13,4.10
2017,05,06,04,14,4.10
2017,05,06,04,15,4.10
2017,05,06,04,16,4.10
2017,05,06,04,17,4.10
2017,05,06,04,18,4.10
2017,05,06,04,19,4.10
2017,05,06,04,20,4.10
2017,05,06,04,21,4.10
2017,05,06,04,22,4.10
2017,05,06,04,23,4.00
2017,05,06,04,24,4.00
2017,05,06,04,25,4.00
2017,05,06,04,26,4.00
2017,05,06,04,27,4.00
2017,05,06,04,28,4.00
2017,05,06,04,29,3.90
2017,05,06,04,30,3.90
2017,05,06,04,31,3.90
2017,05,06,04,32,3.90
2017,05,06,04,33,3.90
2017,05,06,04,34,3.90
2017,05,06,04,35,3.90
2017,05,06,04,36,3.90
2017,05,06,04,37,3.90
2017,05,06,04,38,3.90
2017,05,06,04,39,3.90
2017,05,06,04,40,3.90
2017,05,06,04,41,4.00
2017,05,06,04,42,4.00
2017,05,06,04,43,4.00
2017,05,06,04,44,4.10
2017,05,06,04,45,4.10
2017,05,06,04,46,4.10
2017,05,06,04,47,4.20
2017,05,06,04,48,4.20
2017,05,06,04,49,4.20
2017,05,06,04,50,4.30
2017,05,06,04,51,4.30
2017,05,06,04,52,4.30
2017,05,06,04,53,4.30
2017,05,06,04,54,4.30
2017,05,06,04,55,4.30
2017,05,06,04,56,4.30
2017,05,06,04,57,4.40
2017,05,06,04,58,4.40
2017,05,06,04,59,4.40
2017,05,06,05,00,4.40
2017,05,06,05,01,4.40
2017,05,06,05,02,4.50
2017,05,06,05,03,4.50
2017,05,06,05,04,4.50
2017,05,06,05,05,4.50
2017,05,06,05,06,4.60
2017,05,06,05,07,4.60
2017,05,06,05,08,4.60
2017,05,06,05,09,4.60
2017,05,06,05,10,4.60
2017,05,06,05,11,4.60
2017,05,06,05,12,4.60
2017,05,06,05,13,4.60
2017,05,06,05,14,4.60
2017,05,06,05,15,4.50
2017,05,06,05,16,4.50
2017,05,06,05,17,4.50
2017,05,06,05,18,4.50
2017,05,06,05,19,4.40
2017,05,06,05,20,4.40
2017,05,06,05,21,4.40
2017,05,06,05,22,4.30
2017,05,06,05,23,4.30
2017,05,06,05,24,4.20
2017,05,06,05,25,4.20
2017,05,06,05,26,4.10
2017,05,06,05,27,4.10
2017,05,06,05,28,4.10
2017,05,06,05,29,4.00
2017,05,06,05,30,4.00
2017,05,06,05,31,4.00
2017,05,06,05,32,3.90
2017,05,06,05,33,3.90
2017,05,06,05,34,3.90
2017,05,06,05,35,3.80
2017,05,06,05,36,3.80
2017,05,06,05,37,3.80
2017,05,06,05,38,3.80
2017,05,06,05,39,3.80
2017,05,06,05,40,3.80
2017,05,06,05,41,3.80
2017,05,06,05,42,3.80
2017,05,06,05,43,3.80
2017,05,06,05,44,3.80
2017,05,06,05,45,3.70
2017,05,06,05,46,3.70
2017,05,06,05,47,3.70
2017,05,06,05,48,3.70
2017,05,06,05,49,3.70
2017,05,06,05,50,3.70
2017,05,06,05,51,3.70
2017,05,06,05,52,3.70
2017,05,06,05,53,3.70
2017,05,06,05,54,3.70
2017,05,06,05,55,3.70
2017,05,06,05,56,3.70
2017,05,06,05,57,3.70
2017,05,06,05,58,3.70
2017,05,06,05,59,3.70
2017,05,06,06,00,3.70
2017,05,06,06,01,3.70
2017,05,06,06,02,3.70
2017,05,06,06,03,3.70
2017,05,06,06,04,3.70
2017,05,06,06,05,3.60
2017,05,06,06,06,3.70
2017,05,06,06,07,3.70
2017,05,06,06,08,3.70
2017,05,06,06,09,3.60
2017,05,06,06,10,3.60
2017,05,06,06,11,3.70
2017,05,06,06,12,3.70
2017,05,06,06,13,3.70
2017,05,06,06,14,3.70
2017,05,06,06,15,3.70
2017,05,06,06,16,3.70
2017,05,06,06,17,3.70
2017,05,06,06,18,3.70
2017,05,06,06,19,3.70
2017,05,06,06,20,3.80
2017,05,06,06,21,3.80
2017,05,06,06,22,3.80
2017,05,06,06,23,3.80
2017,05,06,06,24,3.80
2017,05,06,06,25,3.80
2017,05,06,06,26,3.90
2017,05,06,06,27,3.90
2017,05,06,06,28,3.90
2017,05,06,06,29,3.90
2017,05,06,06,30,3.90
2017,05,06,06,31,3.90
2017,05,06,06,32,3.90
2017,05,06,06,33,3.90
2017,05,06,06,34,3.90
2017,05,06,06,35,4.00
2017,05,06,06,36,4.00
2017,05,06,06,37,4.00
2017,05,06,06,38,4.10
2017,05,06,06,39,4.10
2017,05,06,06,40,4.10
2017,05,06,06,41,4.20
2017,05,06,06,42,4.20
2017,05,06,06,43,4.20
2017,05,06,06,44,4.20
2017,05,06,06,45,4.20
2017,05,06,06,46,4.20
2017,05,06,06,47,4.20
2017,05,06,06,48,4.30
2017,05,06,06,49,4.30
2017,05,06,06,50,4.30
2017,05,06,06,51,4.30
2017,05,06,06,52,4.40
2017,05,06,06,53,4.40
2017,05,06,06,54,4.40
2017,05,06,06,55,4.40
2017,05,06,06,56,4.50
2017,05,06,06,57,4.50
2017,05,06,06,58,4.50
2017,05,06,06,59,4.50
2017,05,06,07,00,4.60
2017,05,06,07,01,4.60
2017,05,06,07,02,4.60
2017,05,06,07,03,4.60
2017,05,06,07,04,4.60
2017,05,06,07,05,4.70
2017,05,06,07,06,4.70
2017,05,06,07,07,4.80
2017,05,06,07,08,4.80
2017,05,06,07,09,4.80
2017,05,06,07,10,4.90
2017,05,06,07,11,4.90
2017,05,06,07,12,5.00
2017,05,06,07,13,5.00
2017,05,06,07,14,5.10
2017,05,06,07,15,5.10
2017,05,06,07,16,5.20
2017,05,06,07,17,5.20
2017,05,06,07,18,5.30
2017,05,06,07,19,5.30
2017,05,06,07,20,5.40
2017,05,06,07,21,5.40
2017,05,06,07,22,5.40
2017,05,06,07,23,5.50
2017,05,06,07,24,5.50
2017,05,06,07,25,5.60
2017,05,06,07,26,5.60
2017,05,06,07,27,5.70
2017,05,06,07,28,5.70
2017,05,06,07,29,5.80
2017,05,06,07,30,5.80
2017,05,06,07,31,5.90
2017,05,06,07,32,5.90
2017,05,06,07,33,6.00
2017,05,06,07,34,6.00
2017,05,06,07,35,6.10
2017,05,06,07,36,6.20
2017,05,06,07,37,6.30
2017,05,06,07,38,6.40
2017,05,06,07,39,6.40
2017,05,06,07,40,6.50
2017,05,06,07,41,6.60
2017,05,06,07,42,6.60
2017,05,06,07,43,6.70
2017,05,06,07,44,6.70
2017,05,06,07,45,6.80
2017,05,06,07,46,6.80
2017,05,06,07,47,6.90
2017,05,06,07,48,6.90
2017,05,06,07,49,7.00
2017,05,06,07,50,7.10
2017,05,06,07,51,7.10
2017,05,06,07,52,7.20
2017,05,06,07,53,7.20
2017,05,06,07,54,7.20
2017,05,06,07,55,7.40
2017,05,06,07,56,7.40
2017,05,06,07,57,7.50
2017,05,06,07,58,7.60
2017,05,06,07,59,7.70
2017,05,06,08,00,7.80
2017,05,06,08,01,7.80
2017,05,06,08,02,7.90
2017,05,06,08,03,7.90
2017,05,06,08,04,8.00
2017,05,06,08,05,8.00
2017,05,06,08,06,8.10
2017,05,06,08,07,8.10
2017,05,06,08,08,8.20
2017,05,06,08,09,8.30
2017,05,06,08,10,8.30
2017,05,06,08,11,8.30
2017,05,06,08,12,8.40
2017,05,06,08,13,8.40
2017,05,06,08,14,8.40
2017,05,06,08,15,8.50
2017,05,06,08,16,8.50
2017,05,06,08,17,8.60
2017,05,06,08,18,8.60
2017,05,06,08,19,8.60
2017,05,06,08,20,8.60
2017,05,06,08,21,8.70
2017,05,06,08,22,8.70
2017,05,06,08,23,8.70
2017,05,06,08,24,8.70
2017,05,06,08,25,8.70
2017,05,06,08,26,8.80
2017,05,06,08,27,8.80
2017,05,06,08,28,8.90
2017,05,06,08,29,8.90
2017,05,06,08,30,9.00
2017,05,06,08,31,9.00
2017,05,06,08,32,9.00
2017,05,06,08,33,9.10
2017,05,06,08,34,9.10
2017,05,06,08,35,9.10
2017,05,06,08,36,9.20
2017,05,06,08,37,9.20
2017,05,06,08,38,9.20
2017,05,06,08,39,9.30
2017,05,06,08,40,9.30
2017,05,06,08,41,9.30
2017,05,06,08,42,9.30
2017,05,06,08,43,9.30
2017,05,06,08,44,9.40
2017,05,06,08,45,9.40
2017,05,06,08,46,9.50
2017,05,06,08,47,9.60
2017,05,06,08,48,9.60
2017,05,06,08,49,9.60
2017,05,06,08,50,9.70
2017,05,06,08,51,9.70
2017,05,06,08,52,9.80
2017,05,06,08,53,9.80
2017,05,06,08,54,9.90
2017,05,06,08,55,10.00
2017,05,06,08,56,10.10
2017,05,06,08,57,10.10
2017,05,06,08,58,10.10
2017,05,06,08,59,10.10
2017,05,06,09,00,10.10
2017,05,06,09,01,10.10
2017,05,06,09,02,10.20
2017,05,06,09,03,10.20
2017,05,06,09,04,10.20
2017,05,06,09,05,10.30
2017,05,06,09,06,10.30
2017,05,06,09,07,10.30
2017,05,06,09,08,10.30
2017,05,06,09,09,10.30
2017,05,06,09,10,10.30
2017,05,06,09,11,10.30
2017,05,06,09,12,10.40
2017,05,06,09,13,10.40
2017,05,06,09,14,10.50
2017,05,06,09,15,10.50
2017,05,06,09,16,10.50
2017,05,06,09,17,10.40
2017,05,06,09,18,10.30
2017,05,06,09,19,10.30
2017,05,06,09,20,10.30
2017,05,06,09,21,10.30
2017,05,06,09,22,10.40
2017,05,06,09,23,10.50
2017,05,06,09,24,10.50
2017,05,06,09,25,10.60
2017,05,06,09,26,10.60
2017,05,06,09,27,10.60
2017,05,06,09,28,10.70
2017,05,06,09,29,10.70
2017,05,06,09,30,10.80
2017,05,06,09,31,10.80
2017,05,06,09,32,10.80
2017,05,06,09,33,10.90
2017,05,06,09,34,10.90
2017,05,06,09,35,10.90
2017,05,06,09,36,10.80
2017,05,06,09,37,10.80
2017,05,06,09,38,10.80
2017,05,06,09,39,10.80
2017,05,06,09,40,10.70
2017,05,06,09,41,10.70
2017,05,06,09,42,10.70
2017,05,06,09,43,10.60
2017,05,06,09,44,10.60
2017,05,06,09,45,10.60
2017,05,06,09,46,10.60
2017,05,06,09,47,10.60
2017,05,06,09,48,10.60
2017,05,06,09,49,10.60
2017,05,06,09,50,10.50
2017,05,06,09,51,10.50
2017,05,06,09,52,10.50
2017,05,06,09,53,10.50
2017,05,06,09,54,10.50
2017,05,06,09,55,10.50
2017,05,06,09,56,10.50
2017,05,06,09,57,10.50
2017,05,06,09,58,10.60
2017,05,06,09,59,10.70
2017,05,06,10,00,10.80
2017,05,06,10,01,10.80
2017,05,06,10,02,10.90
2017,05,06,10,03,10.90
2017,05,06,10,04,11.00
2017,05,06,10,05,11.10
2017,05,06,10,06,11.00
2017,05,06,10,07,10.90
2017,05,06,10,08,10.90
2017,05,06,10,09,10.80
2017,05,06,10,10,10.80
2017,05,06,10,11,10.80
2017,05,06,10,12,10.80
2017,05,06,10,13,10.80
2017,05,06,10,14,10.80
2017,05,06,10,15,10.80
2017,05,06,10,16,10.80
2017,05,06,10,17,10.80
2017,05,06,10,18,10.80
2017,05,06,10,19,10.80
2017,05,06,10,20,10.90
2017,05,06,10,21,11.00
2017,05,06,10,22,11.00
2017,05,06,10,23,11.00
2017,05,06,10,24,10.90
2017,05,06,10,25,10.90
2017,05,06,10,26,10.90
2017,05,06,10,27,10.90
2017,05,06,10,28,10.90
2017,05,06,10,29,10.80
2017,05,06,10,30,10.80
2017,05,06,10,31,10.80
2017,05,06,10,32,10.80
2017,05,06,10,33,10.80
2017,05,06,10,34,10.80
2017,05,06,10,35,10.80
2017,05,06,10,36,10.80
2017,05,06,10,37,10.80
2017,05,06,10,38,10.90
2017,05,06,10,39,10.90
2017,05,06,10,40,10.90
2017,05,06,10,41,10.90
2017,05,06,10,42,10.90
2017,05,06,10,43,10.90
2017,05,06,10,44,10.80
2017,05,06,10,45,10.80
2017,05,06,10,46,10.80
2017,05,06,10,47,10.80
2017,05,06,10,48,10.80
2017,05,06,10,49,10.80
2017,05,06,10,50,10.90
2017,05,06,10,51,10.90
2017,05,06,10,52,10.90
2017,05,06,10,53,10.90
2017,05,06,10,54,11.00
2017,05,06,10,55,11.00
2017,05,06,10,56,11.00
2017,05,06,10,57,11.10
2017,05,06,10,58,11.10
2017,05,06,10,59,11.00
2017,05,06,11,00,11.00
2017,05,06,11,01,11.00
2017,05,06,11,02,11.00
2017,05,06,11,03,11.10
2017,05,06,11,04,11.20
2017,05,06,11,05,11.20
2017,05,06,11,06,11.20
2017,05,06,11,07,11.20
2017,05,06,11,08,11.10
2017,05,06,11,09,11.10
2017,05,06,11,10,11.10
2017,05,06,11,11,11.10
2017,05,06,11,12,11.10
2017,05,06,11,13,11.10
2017,05,06,11,14,11.00
2017,05,06,11,15,11.00
2017,05,06,11,16,11.00
2017,05,06,11,17,11.00
2017,05,06,11,18,11.00
2017,05,06,11,19,11.00
2017,05,06,11,20,11.10
2017,05,06,11,21,11.10
2017,05,06,11,22,11.20
2017,05,06,11,23,11.20
2017,05,06,11,24,11.20
2017,05,06,11,25,11.20
2017,05,06,11,26,11.30
2017,05,06,11,27,11.30
2017,05,06,11,28,11.30
2017,05,06,11,29,11.30
2017,05,06,11,30,11.40
2017,05,06,11,31,11.40
2017,05,06,11,32,11.40
2017,05,06,11,33,11.40
2017,05,06,11,34,11.30
2017,05,06,11,35,11.20
2017,05,06,11,36,11.20
2017,05,06,11,37,11.20
2017,05,06,11,38,11.30
2017,05,06,11,39,11.40
2017,05,06,11,40,11.50
2017,05,06,11,41,11.60
2017,05,06,11,42,11.60
2017,05,06,11,43,11.60
2017,05,06,11,44,11.60
2017,05,06,11,45,11.60
2017,05,06,11,46,11.70
2017,05,06,11,47,11.80
2017,05,06,11,48,11.80
2017,05,06,11,49,11.80
2017,05,06,11,50,11.70
2017,05,06,11,51,11.70
2017,05,06,11,52,11.70
2017,05,06,11,53,11.70
2017,05,06,11,54,11.70
2017,05,06,11,55,11.70
2017,05,06,11,56,11.70
2017,05,06,11,57,11.70
2017,05,06,11,58,11.70
2017,05,06,11,59,11.70
2017,05,06,12,00,11.70
2017,05,06,12,01,11.70
2017,05,06,12,02,11.70
2017,05,06,12,03,11.70
2017,05,06,12,04,11.70
2017,05,06,12,05,11.70
2017,05,06,12,06,11.70
2017,05,06,12,07,11.70
2017,05,06,12,08,11.70
2017,05,06,12,09,11.80
2017,05,06,12,10,11.80
2017,05,06,12,11,11.90
2017,05,06,12,12,11.90
2017,05,06,12,13,11.90
2017,05,06,12,14,11.90
2017,05,06,12,15,11.80
2017,05,06,12,16,11.70
2017,05,06,12,17,11.60
2017,05,06,12,18,11.50
2017,05,06,12,19,11.40
2017,05,06,12,20,11.30
2017,05,06,12,21,11.30
2017,05,06,12,22,11.30
2017,05,06,12,23,11.30
2017,05,06,12,24,11.20
2017,05,06,12,25,11.20
2017,05,06,12,26,11.10
2017,05,06,12,27,11.00
2017,05,06,12,28,10.90
2017,05,06,12,29,10.90
2017,05,06,12,30,10.80
2017,05,06,12,31,10.80
2017,05,06,12,32,10.70
2017,05,06,12,33,10.70
2017,05,06,12,34,10.70
2017,05,06,12,35,10.70
2017,05,06,12,36,10.60
2017,05,06,12,37,10.60
2017,05,06,12,38,10.60
2017,05,06,12,39,10.60
2017,05,06,12,40,10.60
2017,05,06,12,41,10.60
2017,05,06,12,42,10.60
2017,05,06,12,43,10.70
2017,05,06,12,44,10.80
2017,05,06,12,45,10.90
2017,05,06,12,46,11.10
2017,05,06,12,47,11.20
2017,05,06,12,48,11.20
2017,05,06,12,49,11.20
2017,05,06,12,50,11.20
2017,05,06,12,51,11.20
2017,05,06,12,52,11.20
2017,05,06,12,53,11.10
2017,05,06,12,54,11.00
2017,05,06,12,55,10.90
2017,05,06,12,56,10.80
2017,05,06,12,57,10.80
2017,05,06,12,58,10.80
2017,05,06,12,59,10.80
2017,05,06,13,00,10.80
2017,05,06,13,01,10.80
2017,05,06,13,02,10.90
2017,05,06,13,03,11.00
2017,05,06,13,04,11.10
2017,05,06,13,05,11.30
2017,05,06,13,06,11.40
2017,05,06,13,07,11.60
2017,05,06,13,08,11.70
2017,05,06,13,09,11.70
2017,05,06,13,10,11.80
2017,05,06,13,11,11.90
2017,05,06,13,12,12.10
2017,05,06,13,13,12.10
2017,05,06,13,14,12.10
2017,05,06,13,15,12.10
2017,05,06,13,16,12.00
2017,05,06,13,17,12.00
2017,05,06,13,18,11.90
2017,05,06,13,19,11.90
2017,05,06,13,20,11.90
2017,05,06,13,21,12.00
2017,05,06,13,22,12.10
2017,05,06,13,23,12.20
2017,05,06,13,24,12.30
2017,05,06,13,25,12.40
2017,05,06,13,26,12.50
2017,05,06,13,27,12.60
2017,05,06,13,28,12.60
2017,05,06,13,29,12.60
2017,05,06,13,30,12.60
2017,05,06,13,31,12.50
2017,05,06,13,32,12.40
2017,05,06,13,33,12.30
2017,05,06,13,34,12.20
2017,05,06,13,35,12.20
2017,05,06,13,36,12.10
2017,05,06,13,37,12.00
2017,05,06,13,38,11.80
2017,05,06,13,39,11.60
2017,05,06,13,40,11.50
2017,05,06,13,41,11.50
2017,05,06,13,42,11.40
2017,05,06,13,43,11.40
2017,05,06,13,44,11.40
2017,05,06,13,45,11.50
2017,05,06,13,46,11.50
2017,05,06,13,47,11.60
2017,05,06,13,48,11.60
2017,05,06,13,49,11.70
2017,05,06,13,50,11.80
2017,05,06,13,51,11.90
2017,05,06,13,52,12.00
2017,05,06,13,53,12.10
2017,05,06,13,54,12.20
2017,05,06,13,55,12.20
2017,05,06,13,56,12.10
2017,05,06,13,57,12.10
2017,05,06,13,58,12.00
2017,05,06,13,59,11.90
2017,05,06,14,00,11.90
2017,05,06,14,01,11.90
2017,05,06,14,02,11.80
2017,05,06,14,03,11.80
2017,05,06,14,04,11.80
2017,05,06,14,05,11.80
2017,05,06,14,06,11.80
2017,05,06,14,07,11.80
2017,05,06,14,08,11.70
2017,05,06,14,09,11.70
2017,05,06,14,10,11.60
2017,05,06,14,11,11.60
2017,05,06,14,12,11.50
2017,05,06,14,13,11.40
2017,05,06,14,14,11.30
2017,05,06,14,15,11.20
2017,05,06,14,16,11.20
2017,05,06,14,17,11.10
2017,05,06,14,18,11.10
2017,05,06,14,19,11.00
2017,05,06,14,20,11.00
2017,05,06,14,21,10.90
2017,05,06,14,22,10.90
2017,05,06,14,23,10.90
2017,05,06,14,24,10.90
2017,05,06,14,25,11.00
2017,05,06,14,26,11.10
2017,05,06,14,27,11.20
2017,05,06,14,28,11.30
2017,05,06,14,29,11.40
2017,05,06,14,30,11.50
2017,05,06,14,31,11.60
2017,05,06,14,32,11.80
2017,05,06,14,33,11.90
2017,05,06,14,34,12.00
2017,05,06,14,35,12.10
2017,05,06,14,36,12.20
2017,05,06,14,37,12.20
2017,05,06,14,38,12.20
2017,05,06,14,39,12.30
2017,05,06,14,40,12.40
2017,05,06,14,41,12.50
2017,05,06,14,42,12.50
2017,05,06,14,43,12.60
2017,05,06,14,44,12.70
2017,05,06,14,45,12.70
2017,05,06,14,46,12.80
2017,05,06,14,47,12.80
2017,05,06,14,48,12.90
2017,05,06,14,49,13.00
2017,05,06,14,50,13.10
2017,05,06,14,51,13.20
2017,05,06,14,52,13.20
2017,05,06,14,53,13.10
2017,05,06,14,54,13.00
2017,05,06,14,55,12.90
2017,05,06,14,56,12.90
2017,05,06,14,57,12.90
2017,05,06,14,58,12.90
2017,05,06,14,59,12.80
2017,05,06,15,00,12.80
2017,05,06,15,01,12.70
2017,05,06,15,02,12.70
2017,05,06,15,03,12.70
2017,05,06,15,04,12.70
2017,05,06,15,05,12.80
2017,05,06,15,06,12.80
2017,05,06,15,07,12.80
2017,05,06,15,08,12.90
2017,05,06,15,09,13.00
2017,05,06,15,10,13.10
2017,05,06,15,11,13.20
2017,05,06,15,12,13.30
2017,05,06,15,13,13.40
2017,05,06,15,14,13.40
2017,05,06,15,15,13.30
2017,05,06,15,16,13.30
2017,05,06,15,17,13.40
2017,05,06,15,18,13.50
2017,05,06,15,19,13.60
2017,05,06,15,20,13.70
2017,05,06,15,21,13.60
2017,05,06,15,22,13.50
2017,05,06,15,23,13.40
2017,05,06,15,24,13.20
2017,05,06,15,25,13.00
2017,05,06,15,26,12.90
2017,05,06,15,27,12.70
2017,05,06,15,28,12.60
2017,05,06,15,29,12.40
2017,05,06,15,30,12.30
2017,05,06,15,31,12.10
2017,05,06,15,32,12.00
2017,05,06,15,33,11.90
2017,05,06,15,34,11.80
2017,05,06,15,35,11.70
2017,05,06,15,36,11.70
2017,05,06,15,37,11.70
2017,05,06,15,38,11.70
2017,05,06,15,39,11.80
2017,05,06,15,40,11.90
2017,05,06,15,41,12.00
2017,05,06,15,42,12.20
2017,05,06,15,43,12.30
2017,05,06,15,44,12.50
2017,05,06,15,45,12.60
2017,05,06,15,46,12.60
2017,05,06,15,47,12.70
2017,05,06,15,48,12.80
2017,05,06,15,49,12.90
2017,05,06,15,50,13.00
2017,05,06,15,51,13.10
2017,05,06,15,52,13.20
2017,05,06,15,53,13.30
2017,05,06,15,54,13.40
2017,05,06,15,55,13.50
2017,05,06,15,56,13.60
2017,05,06,15,57,13.70
2017,05,06,15,58,13.80
2017,05,06,15,59,13.80
2017,05,06,16,00,13.90
2017,05,06,16,01,13.90
2017,05,06,16,02,13.80
2017,05,06,16,03,13.80
2017,05,06,16,04,13.90
2017,05,06,16,05,13.90
2017,05,06,16,06,13.90
2017,05,06,16,07,13.80
2017,05,06,16,08,13.70
2017,05,06,16,09,13.70
2017,05,06,16,10,13.60
2017,05,06,16,11,13.50
2017,05,06,16,12,13.50
2017,05,06,16,13,13.60
2017,05,06,16,14,13.60
2017,05,06,16,15,13.70
2017,05,06,16,16,13.80
2017,05,06,16,17,13.90
2017,05,06,16,18,13.80
2017,05,06,16,19,13.80
2017,05,06,16,20,13.70
2017,05,06,16,21,13.70
2017,05,06,16,22,13.60
2017,05,06,16,23,13.60
2017,05,06,16,24,13.70
2017,05,06,16,25,13.80
2017,05,06,16,26,13.90
2017,05,06,16,27,13.90
2017,05,06,16,28,13.90
2017,05,06,16,29,13.90
2017,05,06,16,30,13.90
2017,05,06,16,31,13.80
2017,05,06,16,32,13.70
2017,05,06,16,33,13.60
2017,05,06,16,34,13.50
2017,05,06,16,35,13.40
2017,05,06,16,36,13.40
2017,05,06,16,37,13.30
2017,05,06,16,38,13.30
2017,05,06,16,39,13.30
2017,05,06,16,40,13.30
2017,05,06,16,41,13.30
2017,05,06,16,42,13.30
2017,05,06,16,43,13.40
2017,05,06,16,44,13.40
2017,05,06,16,45,13.40
2017,05,06,16,46,13.50
2017,05,06,16,47,13.50
2017,05,06,16,48,13.50
2017,05,06,16,49,13.50
2017,05,06,16,50,13.60
2017,05,06,16,51,13.70
2017,05,06,16,52,13.70
2017,05,06,16,53,13.70
2017,05,06,16,54,13.70
2017,05,06,16,55,13.70
2017,05,06,16,56,13.70
2017,05,06,16,57,13.70
2017,05,06,16,58,13.80
2017,05,06,16,59,13.90
2017,05,06,17,00,13.90
2017,05,06,17,01,14.00
2017,05,06,17,02,13.90
2017,05,06,17,03,13.90
2017,05,06,17,04,13.90
2017,05,06,17,05,13.90
2017,05,06,17,06,13.90
2017,05,06,17,07,13.90
2017,05,06,17,08,13.90
2017,05,06,17,09,13.90
2017,05,06,17,10,13.90
2017,05,06,17,11,13.90
2017,05,06,17,12,13.90
2017,05,06,17,13,13.90
2017,05,06,17,14,13.90
2017,05,06,17,15,13.90
2017,05,06,17,16,13.80
2017,05,06,17,17,13.80
2017,05,06,17,18,13.80
2017,05,06,17,19,13.80
2017,05,06,17,20,13.80
2017,05,06,17,21,13.80
2017,05,06,17,22,13.80
2017,05,06,17,23,13.80
2017,05,06,17,24,13.80
2017,05,06,17,25,13.80
2017,05,06,17,26,13.80
2017,05,06,17,27,13.80
2017,05,06,17,28,13.80
2017,05,06,17,29,13.80
2017,05,06,17,30,13.80
2017,05,06,17,31,13.70
2017,05,06,17,32,13.70
2017,05,06,17,33,13.70
2017,05,06,17,34,13.70
2017,05,06,17,35,13.70
2017,05,06,17,36,13.70
2017,05,06,17,37,13.70
2017,05,06,17,38,13.80
2017,05,06,17,39,13.80
2017,05,06,17,40,13.80
2017,05,06,17,41,13.70
2017,05,06,17,42,13.70